Location: Dal�� Lhota
(48.7500°N, 14.0167°E)
Time: 03:35:27
(UTC+00:00)

Transit 2A - Pass Details

Date: 05 August 2021
Orbit: 594 x 964 km, 66.7° (Epoch: 21 September)

Event Time Altitude Azimuth Distance (km) Brightness Sun altitude
Rises 09:54:52 0° 324° (NW) 3,111 8.8 54.6°
Reaches altitude 10° 09:58:21 10° 349° (N) 2,273 8.2 54.9°
Maximum altitude 10:01:04 14° 21° (NNE) 2,062 8.2 55.2°
Drops below altitude 10° 10:03:55 10° 53° (NE) 2,403 8.6 55.4°
Sets 10:07:46 0° 77° (ENE) 3,422 9.5 55.7°
